Regional Weather Roundup
Issued by NWS

Home | Current Version | Previous Version | Text Only | Print | Product List | Glossary Off
Versions: 1 2 3 4 5 6 7 8 9 10 11 12 13 14 15 16 17 18 19 20 21 22 23 24 25 26 27 28 29 30 31 32 33 34 35 36 37 38 39 40 41 42 43 44 45 46 47 48 49 50

000
ASUS43 KLOT 020410
RWRIL

ILLINOIS REGIONAL WEATHER ROUNDUP
NATIONAL WEATHER SERVICE CHICAGO/ROMEOVILLE IL
1100 PM CDT WED OCT 01 2014

NOTE: "FAIR" INDICATES FEW OR NO CLOUDS BELOW 12,000 FEET WITH NO
SIGNIFICANT WEATHER AND/OR OBSTRUCTIONS TO VISIBILITY.

* THESE STATIONS ARE NOT UNDER NWS QUALITY CONTROL. THEY ALSO MAY NOT
  REPORT WEATHER SUCH AS PRECIPITATION OR FOG.

ILZ001-002-007-009-015-016-024-020500-
NORTHWEST ILLINOIS

CITY           SKY/WX    TMP DP  RH WIND       PRES   REMARKS
MOLINE         CLOUDY    61  58  90 SE3       29.83F FOG
SAVANNA*       MOCLDY    62  58  89 CALM      29.85F
$$

ILZ003-004-008-010-011-017-018-020500-
NORTH CENTRAL ILLINOIS

CITY           SKY/WX    TMP DP  RH WIND       PRES   REMARKS
ROCKFORD       CLOUDY    64  55  72 E6        29.89F
FREEPORT*      CLOUDY    63  56  78 CALM      29.89S
ROCHELLE*      MOCLDY    64  56  75 E5        29.87F
DE KALB*       CLOUDY    63  54  71 SE9       29.89S
PERU*          CLOUDY    70  60  70 S6        29.86R
$$

ILZ005-006-012>014-019>023-020500-
NORTHEAST ILLINOIS

CITY           SKY/WX    TMP DP  RH WIND       PRES   REMARKS
CHICAGO-OHARE  CLOUDY    65  51  60 SE10      29.90F
CHICAGO-MIDWAY NOT AVBL
AURORA         CLOUDY    66  54  65 SE7       29.89F
LANSING*       CLOUDY    64  51  62 SE10      29.92F
JOLIET*        CLOUDY    65  54  67 SE7       29.89F
WAUKEGAN       CLOUDY    62  55  77 SE9       29.90F
DUPAGE AIRPORT LGT RAIN  66  54  65 SE7       29.89F
KANKAKEE*      CLOUDY    65  57  73 SE9       29.90F
WHEELING       CLOUDY    66  53  63 SE6       29.91F
MORRIS*        CLOUDY    68  59  72 SE7       29.87F
ROMEOVILLE*    CLOUDY    66  53  62 SE14G22   29.89F
NORTHERLY ISL    N/A     64  55  72 SE7         N/A
$$

LMZ740>746-020500-
SOUTHERN LAKE MICHIGAN

STATION/POSITION SKY/WX   TEMP    WIND        PRES    VSBY  WAVE
                          AIR SEA DIR/SP/G                  HT/PER
                          (F)     (DEG/KT/KT) (MB)    (MI)  (FT/S)
SOUTHERN BUOY              63 62  140/ 17/ 19 1013.4F         2/ 4
WAUKEGAN HARBOR            62     150/ 10/ 11   N/A
HARRISON CRIB              65     140/ 18/ 22   N/A
BURNHAM HARBOR             65     140/  9/ 10   N/A
CALUMET HARBOR             66     140/ 10/ 13 1012.0R
MICHIGAN CITY              63     120/ 12/ 17   N/A
MICHIGAN CITY 6N           64 64  140/ 16/ 21   N/A           2/ 2
ST. JOSEPH                 63 63  120/ 16/ 21   N/A           2/ 2
$$

ILZ025>027-034>036-040-047-049-050-058-095>099-020500-
WEST-CENTRAL ILLINOIS

CITY           SKY/WX    TMP DP  RH WIND       PRES   REMARKS
QUINCY         LGT RAIN  66  64  93 NE7       29.81S
GALESBURG*     CLOUDY    67  64  91 SE5       29.83F
MACOMB*        CLOUDY    66  65  96 CALM      29.85F
JACKSONVILLE*  TSTM      68  66  93 S5        29.87F
PITTSFIELD*    LGT RAIN  67  65  92 S12       29.86R
$$

ILZ028>032-037-038-041>044-048-051>054-059>061-020500-
CENTRAL ILLINOIS

CITY           SKY/WX    TMP DP  RH WIND       PRES   REMARKS
PONTIAC        LGT RAIN  70  61  73 SE10      29.86F
DECATUR        RAIN      68  65  90 W13       29.93R FOG
PEORIA         CLOUDY    72  64  76 S10       29.83F
LACON*         CLOUDY    68  64  84 S7        29.82F
LINCOLN*       TSTM      69  66  92 S14G21    29.85F
SPRINGFIELD    LGT RAIN  67  64  90 S10       29.88S
TAYLORVILLE    TSTM      63  63 100 N5        29.92F
$$

ILZ033-039-045-046-055>057-062-063-020500-
EAST-CENTRAL ILLINOIS

CITY           SKY/WX    TMP DP  RH WIND       PRES   REMARKS
CHAMPAIGN      CLEAR     70  61  73 SE8       29.91S
DANVILLE*      CLOUDY    66  60  80 SE7       29.90F
RANTOUL*       CLOUDY    70  60  71 SE7       29.91F
MATTOON        CLOUDY    70  57  63 SE8       29.90S
PARIS*         CLOUDY    67  62  83 SE5       29.93S THUNDER
$$

ILZ079-100>102-020500-
SOUTHWEST ILLINOIS

CITY           SKY/WX    TMP DP  RH WIND       PRES   REMARKS
ALTON          HVY RAIN  71  65  83 NW8       29.89R
BELLEVILLE     LGT RAIN  74  66  75 VRB2      29.87R
CAHOKIA*       LGT RAIN  76  67  73 S5        29.87R
SPARTA*        CLOUDY    75  63  66 S7        29.89S
$$

ILZ064>066-069>071-074>076-080>082-084>086-088>090-092>094-020500-
SOUTH-CENTRAL ILLINOIS

CITY           SKY/WX    TMP DP  RH WIND       PRES   REMARKS
CARBONDALE     MOCLDY    69  62  78 S3        29.90R
CAIRO*         PTCLDY    70  62  78 CALM      29.90S
EFFINGHAM*     CLOUDY    69  56  63 SE6       29.91S
MARION         MOCLDY    72  63  73 S3        29.91S
CENTRALIA*     CLOUDY    72  61  68 SE6       29.90S
SALEM*         CLOUDY    75  64  69 SE5       29.90S
METROPOLIS*    MOCLDY    66  62  86 CALM      29.91S
$$

ILZ067-068-072-073-078-083-087-091-020500-
SOUTHEAST ILLINOIS

CITY           SKY/WX    TMP DP  RH WIND       PRES   REMARKS
LAWRENCEVILLE  MOCLDY    67  58  72 SE5       29.93S
FLORA*         MOCLDY    69  59  70 SE3       29.92R
FAIRFIELD*     MOCLDY    70  61  73 CALM      29.91S
HARRISBURG*    MOCLDY    67  61  81 CALM      29.93R
ROBINSON*      MOCLDY    65  60  85 E3        29.94S
CARMI*         PTCLDY    64  61  88 SE6       29.91F
$$

ABBREVIATIONS USED IN REMARKS
   TC - TEMPERATURE IN CELSIUS
  WCI - WIND CHILL INDEX
   HX - HEAT INDEX
  VSB - VISIBILITY
$$




USA.gov is the U.S. government's official web portal to all federal, state and local government web resources and services.